Tracking 20942 objects as of 11-Jul-2020
HD Live streaming from Space Station
objects crossing your sky now

SL-12 R/B(2)

Track SL-12 R/B(2) now!


NORAD ID: 24815
Int'l Code: 1997-026D
Perigee: 6,539.4 km
Apogee: 35,815.5 km
Inclination: 17.7 °
Period: 758.4 minutes
Semi major axis: 27548 km
RCS: 24.8947 m2 (large)
Launch date: May 24, 1997
Source: Commonwealth of Independent States (former USSR) (CIS)
Launch site: TYURATAM MISSILE AND SPACE COMPLEX (TTMTR)

Note: This is a ROCKET BODY
aabbcc
Your satellite tracking list
Your tracking list is empty




NASA's NSSDC Master Catalog

Two Line Element Set (TLE):
1 24815U 97026D   20192.13013705 -.00000209 +00000-0 +00000-0 0  9990
2 24815 017.7061 261.9976 5313574 337.6115 003.7473 01.89870262160383
Source of the keplerian elements: AFSPC